Weather in Kalachevo

Russia / Kemerovo Oblast     53°47′14″N   86°56′06″E
temp.,
°C
wind,
m/s
gust,
m/s
humid.,
%
clouds,
%
prec.,
mm/h
press.,
hPa
HPBL,
m
22 january, sat
sat2201:00−23nnw1110076 0.0 10329
04:00−24nnw1110071 0.0 10329
07:00−25ssw0010076 0.0 10339
10:00−24ssw0010043 0.0 103410
13:00−14ese119127 0.0 1033113
16:00−12ene11935 0.0 103331
19:00−19ssw0010044 0.0 10359
22:00−21w0010064 0.0 10369
23 january, sun
sun2301:00−23wsw0010063 0.0 10379
04:00−24ssw0010063 0.0 10369
07:00−24ssw1110056 0.0 10379
10:00−22s11100100 0.0 103715
13:00−13se119059 0.0 1036133
16:00−11ese119252 0.0 103524
19:00−16sw1199100 0.0 103610
22:00−17sw1198100 0.0 103611
24 january, mon
mon2401:00−14sw1296100 0.1 1036114
04:00−15sw1397100 0.4 1036133
07:00−15sw1197100 1.0 103761
10:00−18wsw119994 0.1 104011
13:00−14nnw1291100 0.1 1040273
16:00−14wsw019167 0.0 104195
19:00−21w0010061 0.0 10439
22:00−23sw1110097 0.0 10449
25 january, tue
tue2501:00−24ssw11100100 0.1 10449
04:00−25sw0010099 0.0 10439
07:00−26s0010091 0.0 10439
10:00−24se0010090 0.0 104315
13:00−16e119146 0.0 1041135
16:00−14ne119115 0.0 1040118
19:00−21nw1110072 0.0 10419
22:00−21nw0010052 0.0 10419
26 january, wed
wed2601:00−24ne0010092 0.0 10419
04:00−25ne0010098 0.0 10419
07:00−25nne0010098 0.0 10419
10:00−24ene0010080 0.0 104111
13:00−15ne119242 0.0 1038119
16:00−13nne119228 0.0 103691
19:00−20nnw1110020 0.0 10379
22:00−22nw1110053 0.0 10379